Wind_Speed
15 15 16 16 15 16 17 19 20 20 21 19 19 20 20 21 21 22 22 22 23 24 23 23 25 25 26 26 26 26 26 24 24 24 24 23 22 22 22 22 23 22 22 23
16 16 17 16 16 16 17 18 19 20 19 19 21 21 21 21 22 22 23 24 24 24 25 25 26 26 27 27 26 26 25 24 24 24 24 23 23 23 24 24 24 23 22 22
18 17 17 17 16 17 18 18 19 20 20 20 21 21 21 22 23 24 24 25 24 24 25 27 28 27 27 26 26 25 25 24 24 24 24 24 25 25 25 25 24 23 23 23
19 18 18 17 17 18 17 18 19 20 21 21 21 22 22 23 23 23 24 24 24 25 27 27 27 27 26 26 26 26 25 25 24 25 25 26 27 26 26 24 24 24 24 24
20 19 19 17 18 18 18 19 19 20 21 21 21 22 23 23 23 23 24 24 26 27 28 28 28 27 27 27 27 26 26 26 26 26 26 26 26 26 25 24 24 24 23 23
20 21 20 19 19 19 20 20 20 20 21 21 22 23 23 23 24 25 25 26 27 28 28 28 28 28 28 27 27 27 27 27 27 27 27 26 26 25 24 23 23 23 22 22
21 22 21 20 20 20 21 20 21 21 22 22 22 22 23 24 25 26 26 27 28 28 28 28 28 28 27 27 26 26 27 27 27 27 27 26 25 24 23 22 21 21 21 20
23 24 23 22 22 22 22 21 21 22 23 23 23 24 25 26 27 26 27 27 27 27 27 28 28 27 27 27 26 27 27 26 26 26 26 25 24 24 22 21 20 20 20 19
25 24 24 23 23 23 22 23 23 23 24 24 24 25 26 27 28 27 27 27 27 27 27 28 28 28 28 27 27 27 26 26 26 25 24 24 24 23 21 20 20 19 19 18
25 25 24 24 24 24 24 24 25 25 25 25 26 27 27 27 27 27 27 27 27 27 28 28 27 27 27 27 27 26 26 26 25 25 24 24 23 22 21 20 19 19 18 18
25 24 24 25 25 25 26 26 27 27 27 27 26 26 26 27 27 27 27 27 27 27 28 28 27 27 27 27 26 26 26 26 26 26 25 23 23 22 21 20 19 19 18 17
26 25 25 26 26 27 28 28 27 27 28 27 26 25 26 26 27 27 27 27 28 28 28 28 27 28 28 28 27 27 27 26 26 25 24 23 22 21 21 21 20 19 18 18
27 27 27 27 27 27 27 28 28 28 27 26 25 26 26 27 27 27 27 28 28 28 28 28 28 28 28 27 27 27 27 26 25 24 24 23 22 21 20 21 20 19 18 18
29 28 28 28 28 28 27 28 28 28 27 27 27 26 26 27 27 27 27 28 28 28 28 28 29 29 28 28 27 27 26 26 25 24 23 22 21 20 20 20 20 18 17 17
29 29 28 29 29 28 28 28 29 29 28 28 27 26 26 27 27 27 28 28 28 28 28 29 29 29 28 27 27 26 26 25 24 23 22 21 21 20 21 21 20 19 17 17
29 29 29 29 29 29 29 29 29 29 29 28 27 27 27 27 27 27 28 28 28 28 28 29 29 28 28 27 26 26 25 25 24 23 22 21 21 20 20 20 19 18 17 16
29 30 30 29 30 30 30 29 29 28 28 28 28 28 28 28 28 28 28 28 28 29 29 29 28 28 28 27 27 26 25 24 23 23 23 22 21 20 20 20 19 17 17 17
29 29 30 30 29 30 30 30 29 27 28 28 28 29 29 28 29 29 28 29 30 30 30 29 29 29 28 27 27 26 24 24 23 23 22 21 20 20 20 19 18 18 18 17
30 30 31 31 30 29 29 29 29 29 29 29 29 29 29 29 29 29 29 30 30 30 29 29 29 28 27 26 26 25 24 23 23 23 21 19 18 18 18 18 18 17 16 16
30 31 31 31 31 30 30 30 30 30 29 29 30 30 30 29 29 29 30 30 29 29 28 28 28 27 26 25 25 24 23 22 22 21 19 18 17 17 17 17 17 15 14 15
30 31 31 30 30 31 31 31 30 30 29 29 30 30 30 29 29 29 29 29 28 27 27 26 26 25 24 23 22 22 22 22 22 20 19 18 18 18 18 18 16 15 15 16
30 31 31 30 30 30 30 30 30 30 30 30 30 30 30 29 28 28 28 27 26 26 25 25 24 23 22 22 21 20 21 21 20 19 18 17 18 18 17 16 15 15 15 16
29 29 29 29 30 30 29 30 30 30 30 29 30 29 28 28 28 27 26 25 25 24 24 23 22 22 22 21 20 20 20 20 20 18 17 17 17 18 17 16 16 15 15 15
28 29 28 29 29 29 29 29 29 30 30 29 29 28 28 27 26 26 25 24 23 23 23 22 21 21 21 21 20 20 20 20 20 18 18 17 17 17 17 17 17 16 16 15
28 29 30 30 30 30 30 30 30 30 29 28 27 27 27 27 27 27 26 24 24 23 23 22 21 20 21 21 21 21 21 20 19 19 18 18 17 17 16 16 16 16 15 14
29 29 29 29 30 30 30 30 30 30 29 28 27 27 27 27 27 27 26 25 24 23 22 22 22 22 22 22 22 21 20 20 19 19 18 17 17 17 16 15 15 15 14 13
28 28 27 27 27 28 28 28 28 28 27 27 26 26 26 26 26 25 25 24 23 23 23 22 23 23 23 22 22 21 21 20 19 18 17 17 16 16 15 15 14 14 13 13
Wind_Direction
264 263 266 272 276 277 280 283 284 283 284 288 291 293 296 298 299 302 305 308 309 312 311 311 316 317 318 319 319 318 317 315 315 315 315 313 311 309 306 305 304 302 299 296
265 268 272 275 274 274 278 283 285 288 288 287 292 291 293 296 298 302 305 306 307 311 311 310 315 318 317 317 317 317 317 316 315 315 314 313 312 309 307 307 304 302 301 299
266 265 271 275 274 274 277 280 284 287 290 292 291 293 294 294 297 301 304 306 308 310 310 313 315 315 315 316 316 316 316 316 316 316 315 314 313 311 309 308 306 304 302 300
268 267 270 275 273 275 278 281 282 283 286 289 288 290 292 293 296 301 303 304 306 310 312 314 316 316 315 315 315 316 317 318 317 316 315 314 313 313 311 309 306 303 301 300
269 269 271 273 275 278 282 283 282 282 285 289 289 291 293 295 299 301 303 305 308 309 311 314 315 315 314 315 315 315 316 317 315 314 314 313 312 312 311 309 309 306 305 304
268 272 273 275 277 280 284 285 287 287 289 291 290 291 292 294 298 300 303 306 307 308 309 311 312 313 313 314 314 314 314 315 314 314 313 312 312 312 310 309 309 309 308 306
270 272 275 278 279 281 283 286 287 288 291 293 294 294 295 296 297 299 301 303 304 306 308 309 310 311 311 311 311 311 311 312 312 313 312 312 312 312 311 310 310 309 308 306
271 272 275 279 280 281 285 286 287 289 291 292 293 294 295 295 297 299 301 302 303 305 308 310 311 311 310 309 309 309 309 310 310 310 310 311 311 311 310 309 308 308 307 306
269 272 275 277 279 281 283 284 288 290 290 292 293 293 294 295 296 298 299 300 302 305 307 309 310 310 310 310 310 309 309 310 310 310 311 312 312 310 308 307 307 308 307 306
268 270 273 276 277 279 282 285 288 289 290 293 293 294 295 295 295 297 299 301 303 305 306 308 309 309 310 310 310 311 312 311 311 312 312 312 312 311 309 309 307 306 305 306
268 270 272 274 277 279 281 284 287 288 291 292 292 294 295 295 297 298 299 300 302 303 304 306 307 307 308 308 308 309 310 310 311 313 314 313 313 311 309 309 310 308 306 306
266 268 271 275 278 281 283 284 287 288 289 290 291 294 295 296 298 298 298 299 301 302 304 305 306 306 306 307 307 308 309 309 309 310 310 311 311 311 309 308 308 307 305 304
264 267 271 275 277 279 282 284 285 287 289 290 292 293 296 297 297 298 298 299 301 302 304 305 306 307 306 307 308 308 309 308 307 306 306 306 306 307 307 306 305 304 304 304
267 269 271 273 275 277 280 283 285 288 289 291 293 294 296 297 297 298 299 300 301 302 303 305 306 306 306 307 308 308 309 309 307 306 305 303 303 304 305 305 304 303 302 301
269 269 271 273 275 276 279 281 284 286 288 290 291 293 295 297 298 299 300 301 302 302 303 304 306 306 306 307 307 308 309 308 307 306 305 303 302 301 302 303 301 301 301 300
268 270 272 273 274 276 279 281 283 285 286 288 290 292 294 295 297 298 300 301 301 302 303 304 305 306 306 306 306 306 307 306 305 305 304 302 300 300 300 300 300 299 298 298
267 268 271 272 274 276 279 279 279 280 284 287 289 290 291 293 295 297 299 300 301 302 303 303 304 305 305 304 304 304 304 304 304 303 303 301 298 298 300 301 300 299 298 298
266 269 270 271 272 275 277 278 279 281 284 287 288 289 291 292 295 296 297 299 300 301 301 301 302 303 304 302 303 302 302 304 304 303 302 300 297 298 300 299 297 295 296 296
267 269 270 271 273 273 275 276 277 280 284 287 288 289 291 293 294 295 296 298 299 299 300 300 302 303 302 302 301 300 300 300 302 303 301 299 297 299 300 298 295 292 291 294
268 269 271 272 274 275 276 278 279 280 283 285 287 288 290 291 292 292 294 297 298 298 298 299 300 301 301 302 301 300 300 300 301 301 300 299 298 298 298 298 296 291 290 294
268 269 271 272 274 277 278 279 280 281 283 285 286 288 288 289 290 290 292 294 295 297 297 298 300 300 300 300 301 301 300 300 300 300 299 298 297 298 296 296 294 292 293 295
267 269 271 272 274 274 275 277 279 281 282 284 286 287 288 288 288 289 291 292 293 295 296 298 298 299 299 299 300 302 302 302 302 300 299 296 297 299 297 296 295 294 295 297
268 270 271 272 272 272 274 276 278 280 281 283 285 285 285 287 287 288 289 290 291 293 295 296 297 297 299 298 298 300 301 301 301 299 297 296 295 296 295 295 295 294 295 298
269 267 270 272 271 270 271 273 275 278 280 282 283 283 283 285 285 285 286 287 289 291 292 293 294 296 298 299 298 298 298 299 298 296 294 295 296 296 295 295 294 294 297 298
269 269 269 271 272 272 272 273 275 277 279 279 280 281 282 283 283 282 282 284 285 286 288 290 290 293 297 299 298 298 299 298 296 294 293 293 294 296 296 295 295 293 294 294
269 270 271 271 271 271 272 273 274 274 275 276 277 278 279 281 281 281 282 282 282 283 284 286 287 290 294 295 296 298 298 296 292 291 290 291 292 294 295 296 296 293 290 291
271 273 274 273 273 272 272 272 271 271 272 274 275 276 277 279 281 281 280 280 281 282 282 285 288 291 293 293 294 295 296 294 290 287 288 289 288 289 292 294 294 293 290 289
Height
5827 5827 5827 5826 5826 5825 5824 5823 5822 5821 5820 5819 5818 5816 5814 5811 5809 5807 5804 5801 5799 5795 5791 5787 5783 5779 5775 5771 5766 5762 5757 5753 5748 5745 5741 5737 5734 5730 5727 5724 5721 5718 5715 5713
5823 5823 5822 5822 5822 5821 5820 5818 5817 5816 5815 5814 5812 5810 5808 5806 5804 5802 5799 5796 5793 5789 5786 5782 5778 5774 5770 5766 5762 5757 5753 5748 5744 5740 5736 5732 5729 5725 5722 5718 5715 5712 5709 5706
5818 5818 5817 5818 5817 5816 5815 5813 5813 5811 5811 5809 5807 5805 5804 5801 5799 5797 5794 5791 5787 5784 5780 5776 5772 5768 5765 5761 5756 5752 5748 5743 5739 5735 5731 5727 5723 5720 5716 5712 5709 5706 5703 5700
5813 5814 5813 5815 5812 5811 5810 5809 5808 5807 5806 5804 5803 5801 5799 5796 5794 5791 5788 5785 5781 5778 5774 5770 5767 5763 5759 5755 5751 5747 5742 5738 5734 5730 5726 5722 5718 5714 5710 5707 5704 5701 5698 5695
5807 5807 5808 5808 5806 5806 5805 5804 5803 5802 5801 5799 5797 5795 5793 5791 5788 5786 5782 5779 5776 5772 5769 5765 5761 5757 5753 5749 5745 5741 5737 5733 5729 5725 5721 5717 5713 5709 5705 5702 5698 5695 5692 5689
5801 5801 5801 5803 5801 5800 5801 5799 5798 5796 5795 5793 5791 5790 5788 5785 5783 5780 5777 5773 5770 5766 5763 5759 5756 5751 5747 5744 5739 5735 5732 5728 5723 5719 5715 5711 5707 5703 5700 5696 5693 5689 5686 5683
5796 5795 5795 5796 5795 5795 5795 5795 5792 5790 5789 5787 5785 5784 5782 5779 5777 5774 5771 5768 5764 5761 5757 5753 5750 5746 5742 5738 5734 5730 5726 5722 5718 5714 5710 5706 5702 5698 5694 5691 5688 5684 5681 5678
5790 5790 5792 5790 5789 5789 5789 5787 5786 5785 5783 5781 5779 5777 5775 5773 5771 5768 5765 5761 5758 5754 5751 5747 5744 5740 5736 5732 5729 5725 5721 5716 5712 5708 5704 5700 5696 5693 5689 5686 5683 5680 5677 5674
5785 5786 5784 5783 5783 5782 5782 5781 5780 5778 5776 5775 5773 5771 5769 5767 5764 5761 5758 5755 5752 5748 5745 5741 5738 5734 5730 5727 5723 5719 5715 5711 5707 5703 5699 5695 5691 5688 5684 5681 5678 5675 5672 5669
5777 5777 5777 5777 5776 5775 5775 5774 5773 5771 5770 5769 5767 5765 5762 5760 5757 5754 5751 5748 5745 5742 5739 5735 5731 5728 5724 5720 5716 5712 5709 5705 5701 5697 5693 5690 5685 5682 5679 5676 5673 5670 5667 5664
5770 5770 5769 5769 5768 5768 5767 5767 5766 5764 5763 5761 5759 5757 5755 5752 5749 5746 5744 5741 5738 5735 5732 5728 5725 5721 5718 5714 5710 5706 5703 5699 5695 5691 5688 5684 5681 5677 5674 5671 5667 5665 5662 5659
5763 5763 5763 5762 5761 5760 5760 5759 5758 5757 5755 5753 5751 5749 5746 5744 5742 5739 5736 5734 5731 5728 5725 5721 5718 5714 5711 5707 5703 5700 5696 5693 5689 5685 5682 5679 5675 5672 5669 5666 5663 5659 5657 5654
5754 5754 5754 5753 5753 5753 5752 5751 5749 5749 5747 5746 5743 5741 5739 5737 5734 5732 5729 5726 5723 5720 5717 5714 5711 5707 5704 5700 5697 5693 5689 5686 5682 5679 5676 5673 5670 5667 5664 5661 5658 5655 5652 5649
5745 5745 5745 5745 5745 5744 5744 5743 5742 5741 5739 5738 5736 5734 5732 5729 5727 5724 5722 5719 5716 5713 5710 5707 5703 5700 5696 5693 5689 5686 5682 5679 5675 5672 5669 5666 5664 5661 5659 5656 5653 5650 5647 5644
5736 5736 5736 5736 5736 5736 5735 5735 5734 5733 5731 5729 5728 5726 5724 5722 5719 5716 5714 5711 5708 5705 5702 5699 5696 5692 5689 5686 5682 5679 5675 5672 5669 5665 5662 5660 5657 5655 5653 5650 5647 5644 5642 5640
5727 5727 5727 5727 5727 5727 5727 5726 5725 5724 5723 5721 5719 5718 5716 5714 5711 5709 5706 5703 5700 5698 5695 5691 5688 5685 5681 5678 5675 5672 5669 5665 5662 5659 5656 5653 5651 5649 5646 5644 5641 5639 5637 5634
5719 5719 5718 5718 5718 5718 5717 5717 5716 5715 5714 5712 5711 5709 5707 5705 5703 5701 5698 5696 5693 5690 5687 5684 5680 5677 5674 5671 5668 5665 5662 5659 5656 5653 5649 5646 5644 5642 5640 5637 5635 5633 5631 5629
5709 5709 5709 5709 5709 5708 5708 5707 5707 5706 5705 5704 5702 5701 5699 5697 5695 5693 5690 5687 5685 5682 5679 5675 5672 5669 5666 5663 5660 5657 5655 5652 5649 5646 5643 5640 5638 5636 5634 5631 5629 5627 5625 5623
5700 5700 5700 5699 5699 5699 5699 5698 5698 5697 5696 5695 5693 5692 5690 5688 5686 5684 5681 5679 5676 5673 5670 5667 5664 5661 5658 5655 5653 5650 5647 5645 5642 5639 5636 5634 5632 5630 5627 5625 5623 5622 5620 5618
5691 5691 5691 5691 5691 5690 5690 5689 5688 5688 5687 5686 5684 5683 5681 5679 5677 5674 5672 5670 5667 5664 5662 5659 5656 5653 5651 5648 5645 5643 5640 5638 5635 5632 5630 5628 5626 5624 5622 5620 5618 5616 5614 5613
5681 5681 5681 5681 5681 5681 5680 5679 5679 5678 5677 5676 5675 5673 5672 5670 5668 5666 5664 5662 5659 5656 5653 5651 5648 5645 5643 5641 5638 5636 5633 5631 5628 5626 5624 5622 5620 5618 5616 5614 5612 5610 5609 5607
5671 5671 5671 5671 5671 5671 5671 5670 5669 5668 5668 5667 5665 5664 5662 5661 5659 5657 5655 5653 5651 5648 5645 5643 5641 5638 5636 5634 5632 5630 5627 5625 5623 5620 5619 5617 5615 5613 5611 5609 5607 5605 5604 5602
5662 5662 5662 5661 5661 5661 5661 5660 5660 5659 5658 5657 5656 5655 5653 5652 5650 5649 5647 5645 5643 5641 5638 5636 5634 5632 5630 5628 5626 5624 5622 5619 5617 5615 5613 5611 5609 5607 5605 5604 5602 5600 5599 5597
5653 5653 5652 5652 5651 5651 5651 5651 5650 5649 5649 5648 5647 5645 5644 5643 5642 5640 5639 5637 5635 5633 5631 5629 5627 5626 5624 5622 5620 5618 5615 5613 5611 5609 5607 5606 5604 5602 5600 5598 5597 5595 5594 5592
5644 5643 5642 5642 5641 5641 5641 5640 5640 5640 5639 5638 5638 5637 5636 5635 5634 5633 5631 5630 5628 5626 5624 5623 5621 5620 5618 5616 5614 5611 5609 5607 5604 5603 5601 5600 5598 5596 5594 5593 5591 5590 5588 5587
5633 5633 5632 5631 5631 5631 5630 5630 5630 5630 5629 5629 5629 5628 5627 5626 5625 5624 5623 5621 5620 5619 5617 5616 5614 5613 5611 5609 5607 5605 5603 5600 5599 5597 5595 5594 5593 5591 5589 5587 5586 5585 5583 5582
5624 5623 5622 5622 5621 5621 5620 5620 5621 5620 5620 5620 5620 5619 5618 5617 5616 5615 5614 5613 5612 5611 5610 5609 5607 5606 5604 5602 5600 5598 5596 5594 5592 5591 5589 5588 5587 5585 5584 5583 5581 5580 5578 5577